Location: Unspecified
(0.0000°N, 0.0000°E)
Time: 02:48:07
(UTC+00:00)

A-11 Canister half - Pass Details

Date: 14 December 2018
Orbit: 1516 x 1683 km, 47.2° (Epoch: 18 March)

Event Time Altitude Azimuth Distance (km) Brightness Sun altitude
Exits shadow 01:11:57 13° 180° (S) 3,629 11.1 -60.1°
Drops below altitude 10° 01:12:56 10° 176° (S) 3,844 11.3 -60.0°
Sets 01:16:47 0° 163° (SSE) 4,803 12.0 -59.4°
